N0ERG Weather Reports


time (UTC)temp
F
wind
direction
speed
knots
gust
knots
rain 1hr
in
rain 24hr
in
rain mn
in
humidity
%
barometer
mb
20220629045006 71 79 0.9 1.7 0.00 0.00 0.00 32 1005.9
20220629044005 71 79 0.0 2.6 0.00 0.00 0.00 32 1005.8
20220629043005 72 94 0.9 2.6 0.00 0.00 0.00 31 1005.7
20220629042005 73 192 0.0 0.9 0.00 0.00 0.00 31 1005.7
20220629041004 73 197 0.0 2.6 0.00 0.00 0.00 31 1005.6
20220629040004 73 171 0.0 0.9 0.00 0.00 0.00 30 1005.5
20220629035005 74 171 0.0 1.7 0.00 0.00 0.00 29 1005.5
20220629034005 75 182 0.0 2.6 0.00 0.00 0.00 29 1005.3
20220629033005 76 167 0.9 2.6 0.00 0.00 0.00 28 1005.0
20220629032004 76 184 0.0 4.3 0.00 0.00 0.00 28 1005.0
20220629031004 77 155 0.9 2.6 0.00 0.00 0.00 27 1004.9
20220629030005 78 163 0.0 1.7 0.00 0.00 0.00 26 1004.8
20220629025004 79 193 0.9 5.2 0.00 0.00 0.00 26 1004.6
20220629024004 80 175 0.9 6.1 0.00 0.00 0.00 24 1004.5
20220629023005 81 170 1.7 8.7 0.00 0.00 0.00 24 1004.5
20220629022005 82 189 1.7 7.8 0.00 0.00 0.00 23 1004.5
20220629021004 83 155 1.7 8.7 0.00 0.00 0.00 23 1004.5
20220629020005 85 174 2.6 11.3 0.00 0.00 0.00 22 1004.4
20220629015005 86 203 0.9 4.3 0.00 0.00 0.00 21 1004.4
20220629014004 87 187 0.9 5.2 0.00 0.00 0.00 20 1004.2
20220629013004 88 262 1.7 6.1 0.00 0.00 0.00 18 1004.1
20220629012006 89 275 1.7 8.7 0.00 0.00 0.00 18 1004.1
20220629011005 90 294 0.0 1.7 0.00 0.00 0.00 19 1004.1
20220629010004 91 294 0.0 1.7 0.00 0.00 0.00 18 1004.2
20220629005005 90 333 0.9 1.7 0.00 0.00 0.00 17 1004.2
20220629004004 89 347 0.0 1.7 0.00 0.00 0.00 20 1004.4
20220629003005 89 347 0.9 2.6 0.00 0.00 0.00 17 1004.5
20220629002004 90 123 0.9 1.7 0.00 0.00 0.00 19 1004.5
20220629001004 92 123 0.9 6.1 0.00 0.00 0.00 14 1004.5
20220629000005 95 69 1.7 6.1 0.00 0.00 0.00 16 1004.5
20220628235006 96 355 0.0 2.6 0.00 0.00 0.00 16 1004.4
20220628234006 95 58 1.7 5.2 0.00 0.00 0.00 16 1004.6
20220628233004 93 103 1.7 5.2 0.00 0.00 0.00 17 1004.7
20220628232004 91 112 0.9 2.6 0.00 0.00 0.00 20 1004.8
20220628231004 93 44 4.3 10.4 0.00 0.00 0.00 18 1004.8
20220628230004 95 75 1.7 2.6 0.00 0.00 0.00 19 1005.0
20220628225004 96 242 0.9 2.6 0.00 0.00 0.00 15 1005.1
20220628224004 97 51 1.7 2.6 0.00 0.00 0.00 16 1005.2
20220628223004 96 121 0.9 2.6 0.00 0.00 0.00 14 1005.3
20220628222004 95 250 1.7 4.3 0.00 0.00 0.00 13 1005.5
20220628221005 95 260 0.9 6.1 0.00 0.00 0.00 12 1005.6
20220628220004 95 135 1.7 6.1 0.00 0.00 0.00 14 1005.6
20220628215006 96 251 1.7 5.2 0.00 0.00 0.00 14 1005.8
20220628214004 96 324 1.7 2.6 0.00 0.00 0.00 14 1005.8
20220628213004 96 61 0.9 4.3 0.00 0.00 0.00 18 1005.9
20220628212004 95 85 3.5 6.1 0.00 0.00 0.00 17 1006.1
20220628211004 96 42 1.7 4.3 0.00 0.00 0.00 15 1006.2
20220628210004 95 350 0.9 7.0 0.00 0.00 0.00 14 1006.4
20220628205004 94 351 1.7 5.2 0.00 0.00 0.00 15 1006.5
20220628204004 94 158 1.7 5.2 0.00 0.00 0.00 15 1006.6
20220628203004 95 304 1.7 7.0 0.00 0.00 0.00 15 1006.8
20220628202004 94 44 1.7 5.2 0.00 0.00 0.00 14 1006.8
20220628201004 94 46 1.7 7.8 0.00 0.00 0.00 18 1006.8
20220628200004 94 81 1.7 7.0 0.00 0.00 0.00 16 1006.9
20220628195004 94 258 2.6 6.1 0.00 0.00 0.00 14 1007.1
20220628194004 94 78 1.7 7.8 0.00 0.00 0.00 17 1007.3
20220628193004 93 142 1.7 6.1 0.00 0.00 0.00 19 1007.4
20220628192004 92 16 0.9 8.7 0.00 0.00 0.00 19 1007.6
20220628191004 93 279 2.6 7.0 0.00 0.00 0.00 16 1007.7
20220628190004 93 320 0.9 5.2 0.00 0.00 0.00 16 1007.9
20220628185004 93 50 2.6 6.1 0.00 0.00 0.00 18 1008.0
20220628184004 93 40 1.7 6.1 0.00 0.00 0.00 18 1008.0
20220628183004 93 56 2.6 8.7 0.00 0.00 0.00 16 1008.1
20220628182004 92 59 1.7 6.1 0.00 0.00 0.00 19 1008.1
20220628181004 92 56 1.7 5.2 0.00 0.00 0.00 20 1008.3
20220628180004 91 47 1.7 7.0 0.00 0.00 0.00 17 1008.3
20220628175005 91 65 2.6 6.1 0.00 0.00 0.00 21 1008.3
20220628174004 91 341 0.9 4.3 0.00 0.00 0.00 18 1008.3
20220628173004 90 75 1.7 6.1 0.00 0.00 0.00 20 1008.3
20220628172004 90 89 2.6 6.1 0.00 0.00 0.00 27 1008.5
20220628171005 89 79 1.7 4.3 0.00 0.00 0.00 23 1008.6
20220628170005 89 74 2.6 7.0 0.00 0.00 0.00 22 1008.8
20220628165006 89 72 0.9 5.2 0.00 0.00 0.00 25 1008.8
20220628164005 88 146 0.9 5.2 0.00 0.00 0.00 24 1008.8
20220628163005 87 190 0.9 2.6 0.00 0.00 0.00 27 1008.9
20220628162006 86 25 0.9 2.6 0.00 0.00 0.00 26 1009.0
20220628161005 84 57 0.9 2.6 0.00 0.00 0.00 29 1009.2
20220628160005 83 113 0.0 2.6 0.00 0.00 0.00 29 1009.4
20220628155005 81 148 1.7 4.3 0.00 0.00 0.00 27 1009.5
20220628154005 79 288 0.9 2.6 0.00 0.00 0.00 31 1009.6
20220628153006 77 186 0.9 5.2 0.00 0.00 0.00 33 1009.8
20220628152006 76 187 1.7 4.3 0.00 0.00 0.00 37 1009.9
20220628151005 74 275 0.9 5.2 0.00 0.00 0.00 39 1010.0
20220628150005 73 178 2.6 5.2 0.00 0.00 0.00 38 1010.1
20220628145005 72 190 1.7 5.2 0.00 0.00 0.00 42 1010.1
20220628144005 71 191 0.9 2.6 0.00 0.00 0.00 43 1010.2
20220628143006 70 168 2.6 7.8 0.00 0.00 0.00 43 1010.3
20220628142005 69 177 2.6 6.1 0.00 0.00 0.00 45 1010.5
20220628141005 68 176 0.9 2.6 0.00 0.00 0.00 47 1010.5
20220628140005 67 174 1.7 5.2 0.00 0.00 0.00 48 1010.6
20220628135008 66 164 1.7 6.1 0.00 0.00 0.00 49 1010.6
20220628134005 65 185 0.9 7.8 0.00 0.00 0.00 50 1010.6
20220628133006 64 167 1.7 6.1 0.00 0.00 0.00 52 1010.6
20220628132006 63 196 0.9 5.2 0.00 0.00 0.00 54 1010.6
20220628131006 62 174 1.7 5.2 0.00 0.00 0.00 56 1010.7
20220628130005 60 181 1.7 4.3 0.00 0.00 0.00 57 1010.7
20220628125005 59 153 0.9 4.3 0.00 0.00 0.00 60 1010.7
20220628124005 57 193 1.7 5.2 0.00 0.00 0.00 62 1010.8
20220628123005 56 190 1.7 4.3 0.00 0.00 0.00 65 1010.8
20220628122005 55 192 0.9 5.2 0.00 0.00 0.00 66 1010.8
20220628121004 54 190 0.9 2.6 0.00 0.00 0.00 69 1010.8
20220628120007 54 190 0.0 0.9 0.00 0.00 0.00 70 1011.0
20220628115005 53 190 0.9 1.7 0.00 0.00 0.00 70 1010.9
20220628114006 53 190 0.9 1.7 0.00 0.00 0.00 71 1010.9
20220628113005 53 190 0.0 0.9 0.00 0.00 0.00 72 1010.9
20220628112005 53 190 0.0 0.9 0.00 0.00 0.00 71 1010.9
20220628111005 54 190 0.0 0.0 0.00 0.00 0.00 69 1010.9
20220628110006 54 190 0.0 0.9 0.00 0.00 0.00 69 1011.0
20220628105006 54 190 0.9 1.7 0.00 0.00 0.00 69 1010.9
20220628104005 54 190 0.0 1.7 0.00 0.00 0.00 69 1010.8
20220628103005 54 190 0.0 2.6 0.00 0.00 0.00 69 1010.8
20220628102006 53 192 0.0 2.6 0.00 0.00 0.00 71 1010.8
20220628101005 53 167 0.0 2.6 0.00 0.00 0.00 73 1010.8
20220628100005 53 193 0.0 0.9 0.00 0.00 0.00 75 1011.0
20220628095005 53 119 0.0 0.0 0.00 0.00 0.00 75 1011.0
20220628094005 53 119 0.0 0.9 0.00 0.00 0.00 75 1011.2
20220628093005 53 119 0.0 1.7 0.00 0.00 0.00 76 1011.3
20220628092004 53 119 0.0 0.9 0.00 0.00 0.00 75 1011.5
20220628091006 53 119 0.0 0.0 0.00 0.00 0.00 75 1011.6
20220628090006 53 119 0.0 0.0 0.00 0.00 0.00 74 1011.7
20220628085006 54 119 0.0 0.9 0.00 0.00 0.00 74 1011.6
20220628084005 54 119 0.0 1.7 0.00 0.00 0.00 74 1011.6
20220628083005 54 119 0.0 0.9 0.00 0.00 0.00 73 1011.7
20220628082004 55 119 0.0 0.0 0.00 0.00 0.00 73 1011.7
20220628081005 55 119 0.0 1.7 0.00 0.00 0.00 72 1011.8
20220628080006 56 119 0.0 1.7 0.00 0.00 0.00 71 1011.8
20220628075005 57 119 0.0 1.7 0.00 0.00 0.00 68 1011.9
20220628074005 57 119 1.7 1.7 0.00 0.00 0.00 68 1012.1
20220628073005 58 172 0.0 0.0 0.00 0.00 0.00 66 1012.1
20220628072005 59 172 0.0 0.0 0.00 0.00 0.00 65 1012.3
20220628071005 59 172 0.0 0.9 0.00 0.00 0.00 64 1012.3
20220628070004 59 172 0.0 0.9 0.00 0.00 0.00 64 1012.4
20220628065004 59 172 0.0 1.7 0.00 0.00 0.00 62 1012.6
20220628064005 60 172 0.0 1.7 0.00 0.00 0.00 62 1012.8
20220628063004 60 172 0.0 2.6 0.00 0.00 0.00 62 1012.9
20220628062004 61 169 1.7 2.6 0.00 0.00 0.00 61 1012.9
20220628061004 61 24 0.9 1.7 0.00 0.00 0.00 60 1013.1
20220628060005 62 15 0.0 0.9 0.00 0.00 0.00 58 1013.3
20220628055005 62 15 0.0 1.7 0.00 0.00 0.00 57 1013.4
20220628054005 62 15 0.9 1.7 0.00 0.00 0.00 56 1013.3
20220628053005 63 15 0.0 0.9 0.00 0.00 0.00 54 1013.4
20220628052004 64 15 0.0 0.9 0.00 0.00 0.00 53 1013.6
20220628051005 65 15 0.0 0.9 0.00 0.00 0.00 51 1013.6
20220628050005 66 15 0.0 0.9 0.00 0.00 0.00 49 1013.8